Погода в Гребенке

Украина / Полтавская область     50°07′01″N   32°26′24″E
темп.,
°C
ветер,
м/с
пор.,
м/с
влажн.,
%
обл.,
%
осадки,
мм/ч
давл.,
гПа
погр.,
м
6 марта, сб
сб623:00−3с3792100 0.0 1017207
02:00−3с3790100 0.0 1019230
05:00−5с3790100 0.0 1020154
08:00−7ссз499096 0.0 1022227
11:00−4ссз48830 0.0 1023453
14:00−2сз35790 0.0 1022504
17:00−5зюз338438 0.0 102341
20:00−5з468650 0.0 1024122
7 марта, вс
вс723:00−8зсз34800 0.0 102542
02:00−9зюз34810 0.0 102451
05:00−8юз510830 0.0 1022191
08:00−5юз7148531 0.0 1020411
11:000зюз91581100 0.0 10171059
14:00+1зюз9168597 0.0 10151250
17:00+1з7158199 0.0 10121041
20:00−1з6158178 0.0 1012546
8 марта, пн
пн823:00−2зюз6148872 0.0 1012410
02:00−2зюз6138883 0.0 1011442
05:00−2з6139595 0.1 1010555
08:00−1з6129497 0.4 1011702
11:00−1сз4787100 0.4 1012722
14:00−1ссз458298 0.5 1013899
17:00−4ссв238756 0.1 101322
20:00−7ссв228328 0.1 101521
9 марта, вт
вт923:00−7зсз118043 0.0 101621
02:00−8з128337 0.0 101621
05:00−7з129398 0.0 101622
08:00−5зюз119597 0.1 101767
11:00−5ссз678495 0.1 1021801
14:00−5ссз568298 0.1 1023767
17:00−7ссз358768 0.0 1023192
20:00−8ссз128879 0.0 102529
10 марта, ср
ср1023:00−9юз118491 0.0 102521
02:00−10юз128275 0.0 102521
05:00−10юз228067 0.0 102421
08:00−8ююз237978 0.0 102495
11:00−4юз2370100 0.0 1023369
14:00−3юз236895 0.0 1022557
17:00−5ююз127555 0.0 102122
20:00−7ююз227027 0.0 102221